Wetbulb
62.62 63.46 63.07 62.83 62.90 61.09 59.10 55.99 57.02 57.61 56.00 56.57 56.74 57.03 56.96 56.50 56.51 56.88 58.47 61.43 62.21 62.89 62.81 62.80 62.40 61.40 60.81 60.25 59.87 59.55 59.26 59.36 59.13 58.54 58.40 58.33 57.66 57.36 57.20 56.78 56.26 55.88 55.48
61.39 62.13 62.41 62.23 61.47 60.35 58.29 55.54 56.36 56.57 55.96 56.42 56.03 56.85 56.78 56.47 56.95 57.34 57.55 59.60 60.91 61.70 62.39 62.13 61.82 61.47 61.07 60.35 59.60 59.14 58.86 58.65 58.61 58.23 58.01 57.37 56.80 56.22 56.22 55.89 55.59 55.03 54.81
61.41 63.02 62.38 61.56 60.81 59.98 57.20 54.30 54.12 55.77 55.90 56.51 55.81 56.09 56.57 56.80 56.85 56.91 57.27 57.56 59.22 60.27 61.10 62.00 61.53 60.67 60.64 60.30 59.45 58.95 58.53 58.37 58.13 57.79 57.12 56.52 55.93 55.21 55.07 55.07 54.90 54.07 53.91
63.17 63.25 62.20 60.87 59.56 58.68 57.30 54.81 54.09 54.49 55.07 54.66 54.58 55.25 56.12 56.53 56.75 56.71 56.86 56.90 57.19 57.90 59.70 60.48 61.22 61.16 60.43 60.06 59.65 59.30 58.60 57.90 57.52 57.36 56.86 56.45 55.89 55.12 54.64 54.23 54.32 53.82 53.22
61.83 62.71 61.54 59.57 57.80 57.22 57.14 54.88 53.21 54.81 54.85 54.55 54.47 54.60 54.46 55.57 55.77 56.62 56.14 56.15 56.41 56.54 57.08 59.52 59.72 59.92 60.65 60.43 59.91 59.66 59.34 58.31 57.72 57.53 57.03 56.55 56.16 55.48 54.91 54.19 53.88 53.88 53.55
62.10 61.98 60.26 57.76 57.67 56.36 54.92 54.00 52.47 52.02 54.69 54.47 54.90 53.45 53.25 53.95 55.09 55.62 55.90 56.28 56.13 56.28 56.53 57.13 58.19 57.95 58.95 60.39 60.42 60.23 60.51 59.87 58.94 58.11 57.60 57.08 56.47 55.97 55.35 54.79 54.50 54.21 54.15
61.82 60.48 58.19 56.73 56.68 54.66 54.92 54.08 52.45 52.28 51.97 54.07 52.59 52.03 52.06 52.75 53.53 54.15 55.03 55.60 55.71 55.96 56.13 56.34 56.70 56.97 57.78 59.76 60.72 60.58 61.24 61.28 60.73 59.83 59.14 58.41 57.63 56.60 56.34 55.86 55.51 55.17 54.84
58.70 58.09 56.82 56.39 55.44 54.25 54.26 53.87 53.28 51.53 51.96 54.42 51.71 50.93 49.58 51.45 52.73 53.95 54.37 55.12 55.26 56.19 55.92 56.28 56.68 56.83 56.85 57.49 58.48 60.83 61.27 61.82 62.11 61.66 61.02 60.63 60.20 59.02 57.63 57.12 56.66 56.35 55.97
58.44 57.92 57.16 56.51 54.31 54.25 53.97 54.49 53.48 52.32 52.40 53.19 54.66 51.34 48.19 48.10 50.95 52.26 52.80 53.65 54.38 54.90 55.86 56.12 56.19 56.51 56.92 56.66 57.44 58.29 58.14 58.88 61.89 63.19 63.25 62.05 61.19 60.89 60.50 59.34 58.42 57.72 57.32
58.08 57.62 57.31 55.74 54.42 54.06 54.22 55.04 54.94 54.01 53.91 53.03 51.48 52.59 52.78 51.80 49.90 46.88 50.59 53.08 54.39 54.19 55.08 55.68 56.17 56.24 56.67 56.75 56.88 55.93 54.97 55.15 57.35 60.62 62.50 63.00 62.78 62.08 61.30 61.15 60.65 60.18 59.60
58.63 57.69 58.26 56.72 55.61 55.31 55.65 55.63 54.52 53.95 54.04 53.89 51.90 51.17 51.17 51.62 51.06 48.71 46.83 49.04 52.36 54.01 55.24 55.25 55.57 56.04 56.52 56.61 56.74 56.17 53.55 53.10 54.30 57.56 59.96 61.45 62.52 62.94 62.45 61.98 61.43 61.17 60.78
58.85 57.97 58.44 58.11 58.09 57.27 56.61 56.36 55.23 54.42 53.80 54.09 54.24 52.04 51.92 50.90 49.86 49.45 47.63 48.33 50.29 50.65 53.96 55.24 55.12 55.43 56.23 56.71 56.87 55.10 53.38 52.05 52.78 55.13 57.22 59.07 60.44 61.34 62.11 62.63 62.54 62.13 61.61
56.65 57.99 58.11 57.98 57.94 57.73 56.78 56.64 55.99 55.33 54.34 53.58 53.21 52.78 53.00 52.92 53.39 52.15 50.27 49.29 48.48 49.32 49.91 51.48 53.63 55.05 55.84 56.70 56.83 54.60 54.54 51.02 51.28 53.02 54.92 56.27 57.52 58.94 59.93 60.84 61.54 62.50 62.52
57.30 57.29 58.24 58.09 57.53 57.72 57.96 57.00 56.34 55.88 55.97 55.40 54.93 54.12 53.58 53.53 53.97 53.58 51.80 50.65 47.97 49.16 50.28 51.59 51.45 52.70 54.35 55.47 55.48 52.90 55.78 50.81 50.28 50.80 52.04 53.53 54.72 55.68 56.49 57.54 58.82 59.63 60.52
56.83 56.86 57.24 57.85 57.80 57.35 57.43 57.82 57.48 57.10 56.63 56.09 55.69 55.56 55.09 54.78 55.07 54.88 54.21 53.41 51.13 47.33 47.82 50.89 51.21 52.54 52.96 53.30 52.98 53.63 53.56 52.04 49.72 49.42 49.60 50.82 52.25 53.38 54.07 54.80 55.56 56.48 57.52
56.24 54.91 55.63 56.91 57.22 57.48 57.67 57.57 57.22 57.31 56.70 56.56 56.22 55.59 55.37 55.39 54.88 55.29 54.97 54.59 53.84 51.80 48.71 52.02 52.27 53.54 53.33 53.48 53.12 53.01 53.64 50.93 48.62 47.27 47.10 47.74 48.82 50.39 51.36 52.23 52.76 53.44 54.29
55.86 55.66 55.98 55.79 56.38 56.42 56.69 56.68 56.97 56.58 55.95 55.85 56.22 55.71 55.15 55.72 54.98 55.10 55.30 55.29 54.65 54.41 51.46 53.67 54.64 54.90 53.28 54.40 54.97 54.77 53.85 53.54 53.59 47.81 46.70 46.68 46.54 46.89 47.42 48.24 49.18 50.36 51.12
54.90 55.36 55.41 55.77 56.12 56.24 56.42 56.35 55.96 56.23 55.56 55.11 55.38 55.35 55.15 55.45 54.77 55.43 55.36 54.83 54.69 55.39 53.51 51.31 53.75 54.06 53.62 55.01 54.63 54.77 54.72 54.58 55.00 51.88 48.16 46.89 46.42 45.63 45.40 45.33 45.71 46.54 47.32
53.82 54.08 54.46 54.18 54.21 55.83 56.06 56.00 55.80 55.70 55.53 55.39 55.45 55.33 55.03 55.31 54.59 54.78 54.82 54.50 54.50 54.27 54.10 52.36 52.24 54.32 54.46 54.79 52.99 52.78 53.66 54.20 54.49 52.21 48.44 47.13 46.86 46.95 46.54 45.87 45.62 45.62 45.65
53.34 53.85 54.15 54.42 54.37 54.33 55.24 56.05 56.10 55.91 55.77 55.79 55.81 55.75 55.62 55.18 54.87 54.91 54.46 54.20 54.10 53.52 53.31 52.46 52.33 52.65 53.35 54.38 53.23 52.29 51.93 52.20 51.96 53.50 51.71 50.17 49.84 48.51 46.90 46.31 45.58 45.27 45.11
54.62 54.27 53.72 54.42 55.14 55.37 55.05 54.68 54.80 54.93 55.14 55.18 55.47 55.76 55.84 54.64 50.57 52.46 55.01 54.75 54.26 53.33 52.78 52.27 51.84 52.24 52.22 52.40 52.14 53.30 52.35 53.25 53.74 54.38 53.58 53.58 52.65 52.34 51.96 46.00 47.54 45.05 44.40
55.92 55.91 55.58 55.48 54.77 54.59 47.99 45.47 50.55 54.33 54.40 54.15 53.95 54.67 55.16 49.24 49.29 45.29 44.97 46.23 52.09 54.03 52.61 52.00 51.76 51.25 51.77 52.46 53.32 52.48 52.20 51.04 49.61 54.89 53.36 52.86 47.10 50.73 48.48 46.54 44.28 42.90 42.55
47.75 52.19 53.93 55.80 55.83 54.60 36.19 37.71 41.21 53.42 54.59 54.41 54.26 54.42 54.55 54.81 49.56 53.91 47.59 42.76 43.42 43.05 45.25 52.99 52.22 51.87 51.87 52.59 52.27 51.96 51.75 51.67 51.33 45.22 41.86 41.03 37.21 36.58 38.95 39.87 40.10 39.64 39.40
39.84 38.62 38.04 39.00 41.38 37.19 35.18 35.84 35.72 42.50 51.86 54.43 54.72 53.33 46.15 47.66 49.83 43.40 51.23 52.79 51.49 46.79 38.25 43.65 46.54 40.82 33.51 33.67 37.56 41.17 39.17 33.84 34.13 32.40 33.27 33.06 33.31 31.69 35.37 37.33 38.14 37.84 37.29
34.90 33.96 33.59 33.57 33.87 33.39 34.42 35.68 36.44 42.18 46.75 38.96 35.08 33.79 33.64 33.69 34.48 36.93 38.41 38.36 34.75 30.11 31.97 32.67 31.87 31.20 31.08 31.53 31.55 36.30 33.47 36.47 35.29 29.00 28.08 31.37 30.24 30.36 30.47 29.94 32.26 34.37 34.17
32.29 31.67 30.43 30.98 31.51 30.96 33.14 34.49 36.10 40.25 34.39 32.70 31.53 31.41 32.26 32.52 33.00 34.12 34.47 34.23 28.59 27.43 27.62 27.60 27.43 27.72 28.19 28.30 29.28 27.80 28.80 29.30 29.22 25.60 26.86 27.90 28.28 29.44 26.42 28.61 27.85 29.77 29.28
MSLP
1012.94 1013.56 1014.20 1014.90 1015.24 1015.97 1016.52 1017.46 1017.92 1018.49 1019.55 1019.79 1020.29 1020.51 1020.98 1021.57 1021.91 1022.18 1022.20 1022.24 1022.89 1023.44 1023.70 1024.07 1024.39 1024.59 1024.82 1025.32 1025.78 1026.05 1026.20 1026.44 1026.81 1027.12 1027.28 1027.41 1027.65 1027.86 1027.87 1028.23 1028.53 1028.50 1028.84
1012.80 1013.39 1014.06 1014.55 1015.24 1015.85 1016.50 1017.24 1018.10 1018.57 1019.28 1019.94 1020.28 1020.63 1021.02 1021.49 1021.91 1022.24 1022.46 1022.61 1022.89 1023.34 1023.76 1024.07 1024.42 1024.68 1024.92 1025.40 1025.95 1026.25 1026.43 1026.52 1026.86 1027.17 1027.49 1027.59 1027.89 1028.11 1028.17 1028.38 1028.65 1028.60 1028.91
1012.67 1012.88 1013.60 1014.47 1014.99 1015.79 1016.42 1017.40 1018.30 1018.69 1019.26 1019.96 1020.40 1020.64 1021.15 1021.60 1021.97 1022.42 1022.82 1022.88 1023.17 1023.40 1023.72 1024.18 1024.53 1024.89 1025.00 1025.47 1026.14 1026.41 1026.57 1026.66 1026.82 1027.22 1027.49 1027.75 1028.08 1028.12 1028.30 1028.50 1028.72 1028.84 1028.92
1012.06 1012.64 1013.41 1014.17 1014.78 1015.61 1016.33 1017.40 1018.27 1018.92 1019.51 1019.97 1020.63 1020.98 1021.18 1021.70 1022.06 1022.61 1022.91 1023.13 1023.43 1023.75 1023.76 1024.27 1024.59 1024.91 1025.06 1025.45 1025.99 1026.32 1026.66 1026.84 1027.00 1027.23 1027.38 1027.59 1027.98 1028.14 1028.37 1028.53 1028.65 1028.98 1029.05
1011.67 1012.08 1012.96 1013.83 1014.78 1015.35 1016.28 1017.32 1018.13 1018.59 1019.42 1020.24 1020.72 1021.09 1021.37 1021.89 1022.04 1022.49 1022.98 1023.27 1023.48 1023.77 1023.97 1024.10 1024.54 1024.87 1024.96 1025.24 1025.69 1026.21 1026.49 1026.68 1026.82 1027.05 1027.27 1027.47 1027.81 1028.05 1028.15 1028.34 1028.59 1028.77 1028.83
1011.05 1011.37 1012.20 1013.54 1014.68 1015.19 1016.36 1017.31 1018.07 1018.72 1019.33 1020.03 1020.73 1021.49 1021.81 1022.17 1022.13 1022.45 1022.81 1023.34 1023.60 1023.82 1024.04 1024.28 1024.50 1024.79 1025.08 1025.20 1025.36 1025.77 1026.12 1026.26 1026.56 1026.77 1027.10 1027.34 1027.55 1027.78 1027.94 1028.01 1028.20 1028.26 1028.44
1010.60 1011.19 1012.28 1013.44 1014.55 1015.03 1016.05 1017.10 1018.04 1018.86 1019.74 1020.17 1020.93 1022.08 1022.43 1022.59 1022.61 1022.97 1023.02 1023.12 1023.49 1023.67 1023.93 1024.29 1024.56 1024.80 1025.05 1025.29 1025.37 1025.53 1025.72 1025.72 1025.97 1026.23 1026.59 1026.91 1027.07 1027.32 1027.45 1027.56 1027.71 1027.74 1027.85
1010.43 1011.08 1012.22 1013.30 1014.42 1015.16 1016.24 1017.08 1017.52 1018.78 1019.55 1019.71 1020.48 1021.47 1022.50 1023.07 1022.86 1022.94 1023.07 1023.04 1023.27 1023.44 1023.57 1023.77 1024.03 1024.42 1024.74 1024.96 1025.08 1025.18 1025.32 1025.33 1025.39 1025.55 1025.70 1025.96 1026.18 1026.40 1026.66 1026.88 1027.05 1027.17 1027.15
1010.23 1010.94 1012.12 1013.23 1014.23 1014.97 1015.76 1016.63 1017.41 1017.91 1018.86 1019.66 1019.71 1020.01 1021.48 1021.96 1022.46 1022.66 1022.76 1022.95 1023.06 1023.26 1023.27 1023.31 1023.62 1023.85 1024.15 1024.43 1024.64 1024.84 1024.98 1025.01 1024.89 1024.77 1024.77 1025.02 1025.27 1025.49 1025.68 1025.83 1026.16 1026.30 1026.40
1010.67 1011.16 1011.99 1013.20 1014.00 1014.57 1015.58 1016.52 1017.08 1017.44 1017.86 1018.84 1019.58 1019.60 1019.51 1020.22 1021.51 1022.42 1022.63 1022.57 1022.87 1023.02 1022.95 1022.77 1022.91 1023.09 1023.38 1023.71 1023.87 1023.96 1024.17 1024.31 1024.35 1024.27 1024.25 1024.34 1024.45 1024.67 1024.84 1024.98 1025.16 1025.24 1025.39
1011.06 1011.54 1012.34 1013.00 1013.88 1014.49 1015.37 1016.06 1016.74 1017.09 1017.44 1018.12 1018.69 1019.43 1019.71 1020.13 1020.28 1020.96 1021.85 1022.08 1022.40 1022.28 1022.30 1022.18 1022.35 1022.52 1022.64 1022.82 1023.01 1023.12 1023.30 1023.34 1023.44 1023.46 1023.49 1023.53 1023.59 1023.69 1023.85 1023.89 1023.99 1024.08 1024.25
1011.11 1011.63 1012.21 1013.01 1013.69 1014.22 1015.08 1015.66 1016.32 1016.74 1017.19 1017.51 1018.26 1018.75 1019.09 1019.60 1019.93 1020.17 1020.81 1021.16 1021.30 1021.34 1021.37 1021.54 1021.77 1021.81 1021.73 1021.94 1022.02 1021.95 1022.14 1022.29 1022.43 1022.52 1022.54 1022.52 1022.56 1022.60 1022.65 1022.65 1022.75 1022.85 1022.95
1011.10 1011.46 1011.69 1012.63 1013.25 1014.14 1014.75 1015.35 1016.08 1016.53 1017.04 1017.29 1017.84 1018.49 1018.69 1018.95 1019.05 1019.30 1019.76 1020.36 1020.59 1020.77 1020.90 1020.72 1021.09 1021.04 1021.11 1021.23 1021.18 1021.09 1021.07 1021.19 1021.34 1021.47 1021.51 1021.48 1021.45 1021.41 1021.28 1021.34 1021.42 1021.55 1021.60
1011.04 1011.41 1011.58 1012.08 1013.09 1013.73 1014.64 1015.28 1015.90 1016.44 1016.94 1017.26 1017.44 1017.78 1018.16 1018.44 1018.84 1019.09 1018.87 1019.41 1020.21 1020.25 1020.21 1019.65 1019.59 1020.37 1020.28 1020.32 1020.10 1020.04 1020.23 1020.18 1020.25 1020.37 1020.36 1020.34 1020.32 1020.23 1020.27 1020.28 1020.22 1020.21 1020.18
1010.97 1011.32 1011.74 1012.20 1012.81 1013.75 1014.25 1014.88 1015.58 1016.03 1016.47 1016.54 1017.03 1017.16 1017.55 1017.64 1018.19 1018.61 1018.97 1018.52 1018.72 1019.40 1019.24 1019.23 1019.57 1019.33 1019.36 1019.62 1019.50 1019.35 1019.38 1019.14 1019.14 1019.09 1019.03 1019.06 1019.07 1019.00 1018.93 1018.86 1018.84 1018.85 1018.84
1010.73 1011.11 1011.61 1012.25 1012.80 1013.29 1013.83 1014.43 1014.89 1015.39 1015.71 1016.07 1016.37 1016.72 1017.09 1017.39 1017.52 1017.88 1018.33 1018.27 1018.15 1017.91 1017.62 1017.93 1018.29 1018.25 1018.21 1018.34 1018.31 1018.43 1018.34 1018.02 1017.90 1017.78 1017.73 1017.73 1017.73 1017.67 1017.56 1017.45 1017.48 1017.48 1017.40
1010.62 1010.98 1011.43 1011.88 1012.43 1012.96 1013.49 1013.98 1014.30 1014.76 1015.06 1015.28 1015.60 1016.01 1016.20 1016.42 1016.69 1017.01 1017.30 1017.50 1017.66 1017.53 1017.05 1016.93 1017.04 1017.16 1017.40 1017.22 1016.84 1016.81 1016.98 1016.93 1016.59 1016.47 1016.45 1016.32 1016.24 1016.15 1016.04 1016.11 1016.11 1016.11 1016.14
1010.63 1010.93 1011.24 1011.61 1012.00 1012.35 1012.87 1013.30 1013.66 1013.98 1014.35 1014.65 1014.89 1015.30 1015.31 1015.56 1015.85 1016.02 1016.32 1016.38 1016.39 1016.48 1016.21 1015.94 1015.81 1015.95 1016.03 1015.74 1015.44 1015.57 1015.38 1015.28 1015.23 1015.05 1014.97 1014.96 1014.87 1014.81 1014.78 1014.84 1014.87 1014.80 1014.85
1010.27 1010.67 1010.97 1011.27 1011.56 1011.88 1012.27 1012.63 1012.90 1013.20 1013.45 1013.66 1013.94 1014.22 1014.45 1014.77 1014.86 1015.09 1015.34 1015.52 1015.29 1014.94 1014.85 1014.62 1014.69 1014.90 1014.67 1014.74 1014.65 1014.68 1014.17 1014.04 1013.92 1013.67 1013.71 1013.61 1013.43 1013.35 1013.32 1013.32 1013.38 1013.49 1013.56
1009.63 1009.99 1010.33 1010.65 1010.97 1011.29 1011.53 1011.83 1012.17 1012.44 1012.61 1012.82 1013.01 1013.06 1013.21 1013.46 1013.60 1013.88 1014.14 1014.09 1014.04 1014.06 1014.06 1014.11 1014.08 1013.89 1013.61 1013.34 1013.55 1013.43 1013.15 1013.11 1012.78 1012.64 1012.30 1012.05 1011.85 1011.67 1011.62 1011.53 1011.75 1011.92 1012.13
1009.10 1009.32 1009.67 1009.95 1010.18 1010.50 1010.82 1011.25 1011.51 1011.61 1011.72 1011.81 1011.89 1011.97 1012.10 1012.27 1012.28 1012.35 1012.68 1012.71 1012.93 1013.03 1013.06 1012.91 1012.65 1012.52 1012.34 1012.30 1012.10 1012.04 1011.73 1011.50 1010.94 1011.21 1010.80 1010.78 1010.78 1010.64 1010.49 1010.61 1010.48 1010.54 1010.79
1008.77 1008.94 1009.16 1009.33 1009.56 1009.81 1010.10 1010.29 1010.38 1010.49 1010.60 1010.77 1010.84 1010.91 1010.96 1011.10 1011.12 1011.19 1011.20 1011.16 1011.42 1011.57 1011.56 1011.54 1011.29 1011.18 1011.00 1010.84 1010.93 1010.93 1010.77 1010.63 1009.66 1009.71 1009.65 1009.38 1009.95 1009.78 1010.01 1010.00 1009.97 1010.13 1010.16
1009.71 1009.35 1009.17 1008.96 1009.03 1009.67 1010.99 1010.80 1010.24 1009.75 1009.67 1009.77 1009.86 1009.83 1009.83 1010.01 1010.17 1010.11 1010.10 1010.30 1010.35 1010.33 1010.14 1010.17 1009.88 1009.99 1009.90 1009.83 1009.94 1009.79 1009.78 1009.74 1009.33 1009.53 1009.96 1009.99 1010.58 1010.74 1010.76 1010.62 1010.86 1010.97 1010.95
1010.84 1011.03 1011.19 1011.07 1010.76 1011.53 1011.54 1011.06 1010.52 1010.21 1009.71 1009.31 1009.29 1009.47 1010.21 1010.21 1010.04 1010.40 1009.50 1009.13 1009.27 1010.05 1010.93 1010.49 1010.55 1011.03 1011.40 1011.12 1010.67 1010.03 1009.95 1010.34 1010.78 1011.14 1011.02 1011.04 1011.30 1011.67 1011.55 1011.44 1011.92 1012.08 1012.61
1012.24 1012.40 1012.61 1012.58 1012.50 1012.62 1012.12 1011.33 1010.59 1010.14 1010.13 1011.14 1011.78 1012.00 1011.80 1011.52 1010.96 1010.31 1010.36 1010.43 1011.09 1012.38 1012.73 1011.85 1011.80 1012.57 1012.79 1012.20 1011.43 1010.75 1010.30 1010.42 1010.93 1011.93 1012.30 1012.00 1012.22 1012.45 1012.50 1012.94 1012.78 1013.48 1013.89
1013.41 1013.66 1013.75 1013.82 1013.79 1013.55 1012.96 1011.93 1011.01 1010.79 1011.28 1012.06 1012.73 1012.95 1012.87 1012.72 1011.87 1010.85 1009.81 1009.93 1011.42 1012.50 1012.70 1013.01 1013.53 1013.18 1012.49 1012.72 1012.32 1012.35 1011.85 1012.21 1011.72 1012.81 1013.53 1013.10 1012.62 1012.71 1013.39 1014.40 1014.01 1014.56 1014.67
Wind_Speed
9 7 7 7 8 6 8 6 7 8 6 8 6 9 8 6 5 3 4 12 15 16 17 17 17 17 17 16 15 15 15 15 15 14 14 14 13 13 13 12 11 11 10
7 7 7 8 7 8 7 8 8 8 8 8 8 8 8 6 5 4 3 6 12 12 14 16 16 17 17 16 15 15 15 15 14 14 13 13 13 12 12 12 11 11 10
9 8 8 9 8 8 10 7 6 6 7 6 8 7 7 6 5 5 3 3 5 11 11 13 14 15 15 15 14 14 14 15 14 14 14 13 12 12 12 11 11 10 10
9 10 9 10 9 9 9 8 8 7 6 7 6 5 5 6 6 6 4 3 4 3 8 10 12 14 15 15 15 15 14 13 13 14 13 13 13 12 12 11 11 10 9
13 11 10 9 10 10 9 8 5 9 7 7 7 5 5 5 7 6 5 5 5 5 3 9 11 11 12 15 15 15 15 14 15 14 14 14 13 13 13 11 11 11 10
13 7 9 10 10 10 8 8 9 3 5 7 7 5 3 3 3 5 6 4 4 4 4 5 5 5 10 12 15 16 17 16 15 15 14 14 14 14 13 13 14 13 13
13 12 9 11 10 11 12 11 7 8 3 5 7 4 4 2 2 2 3 4 6 6 5 4 3 3 4 11 13 17 18 17 17 17 16 16 15 15 15 16 17 16 16
12 13 13 11 11 10 11 11 12 5 3 7 4 4 3 1 1 4 3 4 6 5 7 7 7 7 6 5 8 16 19 18 18 19 20 19 20 20 20 19 20 20 19
10 10 10 9 9 9 10 12 11 8 7 6 8 5 4 4 3 2 5 4 5 5 6 7 8 8 8 8 9 12 16 16 17 19 20 21 21 22 23 23 23 23 23
9 10 11 9 8 7 9 10 8 8 7 10 1 1 2 5 4 2 2 5 5 7 8 7 9 10 10 8 12 14 15 18 21 22 21 20 21 23 24 24 25 25 25
10 11 8 10 9 7 8 10 7 5 4 7 4 3 1 1 2 4 3 3 4 6 8 9 8 7 10 10 10 13 17 19 21 24 25 25 24 23 24 26 27 27 27
5 13 12 10 7 8 8 7 5 6 5 5 7 4 4 4 4 3 2 3 6 4 8 7 8 9 8 9 13 17 17 20 22 23 25 26 27 27 27 27 27 29 30
3 8 16 13 11 10 6 6 6 5 5 5 6 4 2 3 2 4 4 2 4 4 4 5 7 7 8 8 11 17 20 19 21 24 25 26 27 28 29 29 29 29 29
5 5 10 12 11 8 9 6 6 4 5 5 6 5 4 4 3 2 4 5 1 4 3 6 4 8 8 9 13 16 14 17 20 22 24 26 27 27 27 27 28 29 30
5 7 7 10 12 13 11 10 7 9 7 6 7 5 5 4 3 4 3 3 6 5 6 4 4 8 7 7 11 11 12 18 19 22 24 26 27 27 27 28 28 28 28
5 7 9 9 9 11 13 14 13 10 10 8 6 8 8 7 7 6 7 7 6 10 10 5 7 6 8 7 10 13 14 19 19 21 23 24 26 27 27 28 28 27 27
5 5 7 9 10 11 11 11 11 11 12 11 10 10 12 12 9 9 10 11 9 8 12 10 7 7 7 11 12 13 13 13 13 19 23 25 25 26 27 26 27 27 27
6 7 7 8 9 10 11 12 12 11 12 13 13 13 14 9 12 13 11 15 13 13 10 16 14 12 10 13 14 15 13 11 12 16 20 23 24 25 25 24 25 26 26
9 8 8 8 8 9 10 11 12 13 13 13 14 14 15 15 15 12 14 13 12 10 12 11 14 12 11 9 10 11 13 13 10 17 17 18 20 23 23 24 23 23 23
8 10 11 11 11 10 11 12 12 13 13 13 14 16 16 16 17 16 14 14 13 11 11 10 11 12 12 12 9 11 11 9 12 11 16 20 19 22 25 25 23 22 22
7 8 8 9 10 11 9 12 13 14 14 15 15 15 15 17 19 19 13 15 14 12 11 12 13 13 13 13 15 13 14 13 14 11 12 11 11 11 13 15 16 19 18
9 8 9 10 10 8 11 16 15 13 15 16 16 16 16 15 17 19 21 24 22 17 17 14 15 17 19 16 15 14 14 13 16 10 12 13 3 9 5 4 7 9 13
9 7 7 10 12 3 17 15 12 15 14 14 15 15 14 12 15 18 21 23 24 25 28 23 21 18 19 16 14 15 15 15 16 3 2 3 2 2 4 5 7 9 11
10 11 11 12 13 12 17 14 11 6 12 15 15 10 9 10 10 13 14 18 17 7 9 8 12 9 9 7 4 3 1 3 3 4 5 0 3 4 5 7 14 13 12
10 11 12 13 12 13 22 17 10 2 4 12 13 15 10 8 10 10 6 7 12 10 15 26 25 21 22 25 18 2 1 5 4 3 7 3 4 3 5 7 7 19 18
11 9 11 12 17 13 23 22 14 5 9 8 10 11 20 16 19 15 5 10 11 7 9 10 11 14 16 16 24 13 8 6 3 3 6 3 2 1 3 3 6 6 6
Wind_Direction
174 169 164 148 148 147 137 122 127 134 127 130 137 135 137 131 131 134 151 146 150 163 163 162 158 156 151 152 152 151 150 151 151 150 149 146 144 146 142 142 143 139 139
178 168 155 152 141 152 141 132 143 145 143 146 145 147 143 141 135 138 140 158 161 171 167 168 166 163 158 158 161 162 162 159 161 160 162 156 158 157 154 155 158 150 157
186 177 162 152 151 152 138 120 135 140 139 151 147 148 146 144 134 132 147 138 160 166 166 169 171 172 164 164 172 173 175 172 171 172 171 170 173 168 169 171 169 168 170
189 177 169 158 154 151 148 146 150 141 146 138 144 156 139 145 144 148 148 146 146 161 166 170 175 178 173 176 183 186 187 182 182 183 182 181 186 183 183 184 181 189 188
202 176 165 147 156 147 156 152 146 147 148 146 150 144 136 159 155 154 159 165 164 161 164 178 179 185 185 186 190 197 196 194 194 194 195 195 198 198 196 196 200 205 205
192 184 140 140 152 145 146 154 154 100 142 149 140 107 90 124 140 160 171 170 174 171 172 178 181 189 196 201 200 205 208 204 206 205 207 206 210 213 211 208 214 214 218
193 155 139 148 161 149 161 158 144 138 86 129 111 71 44 52 102 155 164 169 182 184 178 189 184 183 210 212 213 218 223 218 214 212 215 218 219 223 223 222 225 223 223
138 140 144 150 163 143 152 162 160 135 112 165 138 115 133 73 204 203 196 190 203 195 199 196 189 195 202 209 221 224 232 233 227 222 220 216 216 216 224 228 231 230 228
129 117 130 150 154 156 160 171 165 158 152 198 174 141 138 189 147 167 207 204 187 205 215 202 211 208 204 209 216 224 231 240 245 242 231 222 222 221 221 221 229 232 232
142 141 141 148 163 150 159 178 181 177 151 176 164 303 86 141 168 172 221 204 206 219 219 221 214 213 211 216 218 220 220 227 235 243 247 243 235 229 230 229 229 228 230
156 148 153 157 163 152 164 170 166 161 143 170 158 140 109 62 93 134 176 189 200 209 221 223 222 221 215 218 223 229 222 225 227 234 239 244 243 239 236 235 234 233 233
162 172 164 155 150 141 158 162 156 166 165 148 192 173 172 168 179 143 136 158 204 209 220 223 221 223 219 220 226 229 223 226 229 232 235 238 240 242 242 240 238 237 237
154 194 166 166 166 174 148 147 156 159 170 159 160 183 167 212 172 166 142 163 182 207 209 204 221 227 228 227 234 229 232 227 228 231 235 238 240 240 240 241 241 243 241
168 148 175 163 174 146 160 162 158 157 173 196 180 182 170 187 166 291 182 146 199 227 217 214 155 226 227 228 232 234 241 231 230 230 233 236 238 239 240 241 242 242 242
153 157 156 159 167 182 185 189 200 207 191 192 206 202 207 201 180 222 250 218 197 213 226 216 215 207 211 226 236 237 236 241 232 233 233 235 239 240 239 239 240 240 240
159 150 161 170 174 180 187 192 206 211 207 210 206 205 212 222 216 223 236 247 236 229 249 194 212 206 197 205 231 240 242 236 233 232 233 235 237 239 240 241 241 240 240
173 167 173 171 177 183 184 192 201 200 206 214 211 210 216 217 219 223 224 227 234 239 246 250 237 223 205 224 234 232 242 237 240 233 235 237 238 238 239 239 239 241 243
185 186 183 185 187 188 190 199 206 212 211 215 217 219 230 227 225 226 223 226 226 223 232 252 254 250 229 228 232 238 234 233 239 240 232 234 237 239 240 239 237 238 240
190 192 188 195 196 201 201 205 208 212 214 218 221 224 226 226 230 226 225 227 228 234 240 246 251 254 250 245 241 246 245 249 247 242 242 240 237 238 238 237 238 237 235
191 194 199 206 208 208 212 213 215 223 227 227 226 229 227 223 228 229 230 232 237 237 235 236 242 249 249 247 233 247 251 234 250 247 242 243 245 239 235 234 233 232 229
204 206 206 217 221 220 216 220 224 226 228 231 232 231 228 229 231 231 234 237 236 238 241 245 247 249 250 247 243 249 250 254 249 241 243 238 235 242 243 239 244 229 224
231 226 221 222 222 224 220 216 219 222 226 230 236 238 237 229 235 233 228 234 240 239 237 242 250 250 246 246 250 249 251 250 260 231 240 248 212 244 282 275 247 227 206
10 346 296 244 234 206 15 1 271 234 236 235 238 242 243 238 230 238 235 234 241 242 241 251 253 246 253 248 243 247 247 248 255 325 320 251 27 46 18 37 79 92 91
34 31 24 20 31 36 4 349 334 297 260 250 250 285 336 323 322 330 276 247 237 287 337 281 282 343 18 350 281 262 170 101 64 49 4 189 18 39 32 60 62 74 70
47 48 42 37 39 24 7 359 338 346 3 48 50 39 31 31 16 18 358 357 58 49 42 63 70 55 38 34 28 335 293 224 224 54 14 4 13 58 52 39 59 76 72
62 58 54 45 39 31 21 21 19 55 73 78 63 52 34 32 27 19 82 118 95 90 83 64 40 45 56 42 39 37 19 14 50 58 355 9 34 7 92 24 46 45 51